Location: Bosmont
(49.7318°N, 3.8587°E)
Time: 04:57:49
(UTC+00:00)

ITUPSAT 1 - Visible Passes

Search period start: 07 December 2023 00:00
Search period end: 17 December 2023 00:00
Orbit: 697 x 707 km, 98.5° (Epoch: 06 December)

Date Brightness Start Highest point End Pass type
(mag) Time Alt. Az. Time Alt. Az. Time Alt. Az.
07 Dec ? 06:36:39 10° ENE 06:38:42 13° NE 06:40:46 10° NNE visible
09 Dec ? 06:26:05 10° ENE 06:26:37 10° NE 06:27:09 10° NE visible
14 Dec ? 06:42:03 10° E 06:44:25 14° NE 06:46:49 10° NNE visible
16 Dec ? 06:30:58 10° ENE 06:32:18 11° NE 06:33:38 10° NE visible
